#timestamp,LO_Frequency,Hit,StdDev 
1595369315.5,286047021.3,P
1595369335.3,286047020.7,P
1595369355.1,286047020.6,P
1595369375.9,286047023.2,Y
1595369395.7,286047004.3,P
1595369415.5,286047003.0,N
1595369435.4,286047003.8,N
1595369455.2,286047003.8,N
1595369475.1,286047003.5,N
1595369476.0,286047003.5,N
1595369495.8,286047001.3,N
1595369515.6,286047004.3,N
1595369535.5,286047001.3,N
1595369555.3,286047002.5,N
1595369575.2,286047001.6,N
1595369595.9,286047003.2,N
1595369615.7,286047004.1,N
1595369635.6,286047003.8,N
1595369655.4,286047005.3,N
1595369675.3,286047004.9,N
1595369695.1,286047007.4,N
1595369696.0,286047007.4,N
1595369715.8,286047008.5,N
1595369735.7,286047009.4,N
1595369755.5,286047009.3,N
1595369775.3,286047010.2,N
1595369795.2,286047013.9,Y
1595369815.0,286047007.3,P
1595369815.9,286047007.3,P
1595369835.8,286047006.7,P
1595369855.6,286047006.5,Y
1595369875.4,286046998.3,P
1595369895.3,286046999.4,N
1595369915.1,286046997.0,N
1595369935.9,286046996.7,N
1595369955.7,286046997.1,N
1595369975.5,286046999.4,N
1595369995.4,286046999.3,N
1595370015.2,286047002.4,N
1595370035.0,286047002.6,N
1595370035.9,286047002.6,N
1595370055.8,286047001.7,N
1595370075.6,286047001.3,N
1595370095.5,286047004.0,N
1595370115.3,286047004.4,N
1595370135.1,286047003.4,N
1595370155.9,286047003.2,N
1595370175.7,286047003.2,N
1595370195.5,286047007.6,N
1595370215.4,286047006.5,N
1595370235.2,286047006.3,N
1595370255.1,286047007.4,N
1595370256.0,286047007.4,N
1595370275.8,286047008.4,N
1595370295.6,286047008.4,N
1595370315.5,286047012.3,Y
1595370335.3,286047008.8,P
1595370355.1,286047009.6,P
1595370375.9,286047009.3,P
1595370395.7,286047012.1,Y
1595370415.6,286047005.0,P
1595370435.4,286047007.4,P
1595370455.2,286047007.4,P
1595370475.1,286047007.4,Y
1595370476.0,286047007.4,P
1595370495.8,286047000.0,N
1595370515.7,286047000.1,N
1595370535.5,286047001.0,N
1595370555.3,286046999.8,N
1595370575.2,286047000.1,N
1595370595.0,286047002.3,N
1595370595.9,286047002.3,N
1595370615.7,286047002.5,N
1595370635.6,286047000.5,N
1595370655.4,286047000.3,N
1595370675.3,286047002.7,N
1595370695.1,286047001.5,N
1595370696.0,286047001.5,N
1595370715.8,286047001.5,N
1595370735.7,286047004.1,N
1595370755.5,286047005.9,N
1595370775.3,286047005.2,N
1595370795.2,286047005.4,N
1595370815.0,286047000.1,N
1595370815.9,286047000.1,N
1595370835.8,286047000.9,N
1595370855.6,286046999.1,N
1595370875.4,286046999.1,N
1595370895.3,286046997.0,N
1595370915.1,286046997.9,N
1595370935.8,286046997.4,N
1595370955.7,286046995.0,N
1595370975.5,286046995.7,N
1595370995.4,286046995.0,N
1595371015.2,286046997.5,N
1595371035.0,286046997.3,N
1595371035.9,286046997.3,N
1595371055.8,286046998.4,N
1595371075.6,286047000.0,N
1595371095.5,286047002.0,N
1595371115.3,286047002.6,N
1595371135.1,286047004.4,N
1595371155.9,286047005.2,N
1595371175.7,286047005.0,N
1595371195.5,286047006.8,N
1595371215.4,286047006.5,N
1595371235.2,286047006.5,N
1595371255.1,286047009.0,N
1595371256.0,286047009.0,N
1595371275.8,286047009.1,N
1595371295.6,286047008.3,N
1595371315.5,286047007.9,N
1595371335.3,286047008.1,N
1595371355.1,286047008.5,N
1595371375.9,286047009.2,N
1595371395.7,286047009.1,N
1595371415.6,286047008.7,N
1595371435.4,286047012.0,N
1595371455.2,286047014.0,N
1595371475.1,286047011.5,N
1595371476.0,286047011.5,N
1595371495.8,286047011.0,N
1595371515.7,286047013.6,N
1595371535.5,286047014.0,N
1595371555.3,286047013.6,N
1595371575.2,286047011.1,N
1595371595.0,286047012.8,N
1595371595.9,286047012.8,Y
1595371615.7,286047003.1,P
1595371635.6,286047003.5,N
1595371655.4,286047007.6,P
1595371675.3,286047006.6,N
1595371695.1,286047008.9,Y
1595371715.8,286047001.9,P
1595371735.7,286047002.0,N
1595371755.5,286047002.1,N
1595371775.3,286047001.9,N
1595371795.2,286047002.8,N
1595371815.0,286047004.3,Y
1595371815.9,286047004.3,P
1595371835.8,286047000.9,N
1595371855.6,286047000.8,N
1595371875.4,286047000.1,N
1595371895.3,286047003.5,N
1595371915.1,286047005.1,Y
1595371935.9,286047004.3,P
1595371955.7,286047003.2,N
1595371975.5,286047004.3,P
1595371995.4,286047003.9,Y
1595372015.2,286046998.5,P
1595372035